Location: Unspecified
(0.0000°N, 0.0000°E)
Time: 09:05:15
(UTC+00:00)

Envisat - Pass Details

Date: 29 April 2019
Orbit: 764 x 766 km, 98.2° (Epoch: 25 May)

Event Time Altitude Azimuth Distance (km) Brightness Sun altitude
Rises 18:15:37 0° 147° (SSE) 3,231 5.8 -4.4°
Reaches altitude 10° 18:18:15 10° 135° (SE) 2,302 5.0 -5.0°
Maximum altitude 18:22:30 27° 78° (ENE) 1,427 3.9 -6.1°
Drops below altitude 10° 18:26:44 10° 21° (NNE) 2,293 5.4 -7.1°
Sets 18:29:20 0° 9° (N) 3,216 6.3 -7.7°
